User: anonymous   Login
Location: Ay?beleni
(36.6500°N, 30.3000°E)
Time: 11:43:45
(UTC+00:00)
Language:

IRIDIUM 104 - Orbit

View from above orbital plane
View from above orbital plane
View from above satellite
View from above satellite

Ground track
Ground track

The orbit data is extracted from the following two-line orbital elements,

1 41922U 17003F   20190.82733010 +.00000077 +00000-0 +20405-4 0  9994
2 41922 086.3975 274.9240 0002106 102.1796 257.9636 14.34219525182332
Epoch (UTC): 08 July 2020 19:51:21
Eccentricity: 0.0002106
inclination: 86.3975°
perigee height: 776 km
apogee height: 779 km
right ascension of ascending node: 274.9240°
argument of perigee: 102.1796°
revolutions per day: 14.34219525
mean anomaly at epoch: 257.9636°
orbit number at epoch: 18233

The dashed part of the orbit path shows where the satellite is in the earth's shadow,  

DLR